User: anonymous   Login
Location: Unspecified
(0.0000°N, 0.0000°E)
Time: 00:53:31
(UTC+00:00)
Language:

Freja - Orbit

View from above orbital plane
View from above orbital plane
View from above satellite
View from above satellite

Ground track
Ground track

The orbit data is extracted from the following two-line orbital elements,

1 22161U 92064A   21023.41872999  .00000028  00000-0  41302-4 0  9994
2 22161  62.9721 280.4961 0847480  71.2784 297.8226 13.30429619371545
Epoch (UTC): 23 January 2021 10:02:58
Eccentricity: 0.0847480
inclination: 62.9721°
perigee height: 507 km
apogee height: 1783 km
right ascension of ascending node: 280.4961°
argument of perigee: 71.2784°
revolutions per day: 13.30429619
mean anomaly at epoch: 297.8226°
orbit number at epoch: 37154

The dashed part of the orbit path shows where the satellite is in the earth's shadow,  

DLR